Home > Weather > Rohrbach > Past weeks

Flag for Austria Past Weather in Rohrbach, Upper Austria, Austria — Yesterday and Last 2 Weeks

Now
63 °F

Mild.


Feels Like: 63 °F
Forecast: 52 / 81 °F
Wind: 1 mph from Northeast

Location: Rohrbach

Current Time: Aug 26, 2016 at 5:31:00 AM

Latest Report: Aug 26, 2016 at 4:00 AM


Visibility: N/A

Pressure: 30.09 "Hg (28.02 "Hg at 605m altitude)

Humidity: 62%

Dew Point: 49 °F

Location of RohrbachLocation

Past Weather in Rohrbach — Graph

°F

Rohrbach Temperature Yesterday

Maximum temperature yesterday: 81 °F (at 4:00 PM)
Minimum temperature yesterday: 57 °F (at 6:00 AM)
Average temperature yesterday: 69 °F

High & Low Weather Summary for the Past Weeks

 TemperatureHumidityPressure
High81 °F (Aug 25, 4:00 PM)100% (Aug 11, 6:00 AM)30.43 "Hg (Aug 11, 6:00 AM)
Low42 °F (Aug 11, 7:00 AM)38% (Aug 25, 6:00 PM)29.76 "Hg (Aug 18, 4:00 PM)
Average62 °F76%30.12 "Hg
* Reported Aug 11 4:00 AM — Aug 26 4:00 AM, Rohrbach, Weather by CustomWeather, © 2016

Note: Actual official high and low records may vary slightly from our data, if they occured in-between our weather recording intervals... More about our weather records

Advertising

Rohrbach Weather History for the Previous 24 Hours

Scroll right to see more
 ConditionsComfort  
Time TempWeatherWind HumidityBarometerVisibility
4:00 AM
Fri, Aug 26
63 °FMild.1 mph62%30.09 "HgN/A
3:00 AM62 °FCool.1 mph66%30.10 "HgN/A
2:00 AM62 °FMild.2 mph65%30.11 "HgN/A
1:00 AM64 °FMild.2 mph64%30.11 "HgN/A
12:00 AM64 °FMild.3 mph65%30.11 "HgN/A
11:00 PM
Thu, Aug 25
66 °FMild.3 mph61%30.11 "HgN/A
10:00 PM68 °FMild.2 mph54%30.11 "HgN/A
9:00 PM71 °FMild.3 mph46%30.10 "HgN/A
8:00 PM74 °FMild.2 mph44%30.08 "HgN/A
7:00 PM78 °FPleasantly warm.1 mph39%30.06 "HgN/A
6:00 PM80 °FPleasantly warm.2 mph38%30.05 "HgN/A
5:00 PM80 °FWarm.2 mph41%30.06 "HgN/A
4:00 PM81 °FWarm.2 mph42%30.06 "HgN/A
3:00 PM79 °FWarm.3 mph43%30.07 "HgN/A
2:00 PM78 °FWarm.2 mph48%30.09 "HgN/A
1:00 PM75 °FMild.3 mph50%30.11 "HgN/A
12:00 PM74 °FMild.2 mph51%30.13 "HgN/A
11:00 AM71 °FMild.3 mph55%30.15 "HgN/A
10:00 AM68 °FMild.2 mph62%30.16 "HgN/A
9:00 AM63 °FMild.2 mph73%30.19 "HgN/A
7:00 AM58 °FCool.2 mph80%30.22 "HgN/A
6:00 AM57 °FCool.1 mph84%30.22 "HgN/A
5:00 AM60 °FCool.2 mph77%30.21 "HgN/A
Weather by CustomWeather, © 2016

See weather overviewHow to use our weather pages